Location: Korczew
(51.3586°N, 19.4491°E)
Time: 17:14:45
(UTC+00:00)

Cosmos 1515 Rocket - Pass Details

Date: 19 May 2025
Orbit: 601 x 623 km, 82.5° (Epoch: 20 June)

Event Time Altitude Azimuth Distance (km) Brightness Sun altitude
Exits shadow 23:14:59 28° 143° (SE) 1,144 4.5 -18.2°
Maximum altitude 23:16:43 42° 93° (E) 873 4.3 -18.2°
Drops below altitude 10° 23:20:52 10° 22° (NNE) 1,986 7.4 -18.1°
Sets 23:23:11 0° 16° (NNE) 2,900 8.7 -18.0°
